Regional Weather Roundup
Issued by NWS Glasgow, MT

Home | Current Version | Previous Version | Text Only | Print | Product List | Glossary On
Versions: 1 2 3 4 5 6 7 8 9 10 11 12 13 14 15 16 17 18 19 20 21 22 23 24 25 26 27 28 29 30 31 32 33 34 35 36 37 38 39 40 41 42 43 44 45 46 47 48 49 50
936
ASUS45 KGGW 060915
RWRGGW
HOURLY REGIONAL WEATHER ROUNDUP FOR NORTHEAST MONTANA
NATIONAL WEATHER SERVICE GLASGOW MONTANA
200 AM MST SAT FEB 06 2016

NOTE: "FAIR" INDICATES FEW OR NO CLOUDS BELOW 12,000 FEET WITH NO
SIGNIFICANT WEATHER AND/OR OBSTRUCTIONS TO VISISBILITY.

NORTHEAST MONTANA


CITY           SKY/WX    TMP DP  RH WIND       PRES   REMARKS
GLASGOW        CLOUDY    35  26  69 SW8       29.85F
PLENTYWOOD       N/A     32  25  75 S2          N/A
WOLF POINT     CLOUDY    29  23  78 CALM      29.86F
JORDAN           N/A     37  27  67 SW12      29.90F
WINNETT          N/A     32  26  78 CALM        N/A
SIDNEY         CLOUDY    30  23  74 SW12      29.88F
GLENDIVE       CLOUDY    37  25  60 W14       29.94F
MALTA            N/A     45  27  49 W12G20      N/A
SCOBEY           N/A     37  18  46 SW16G22   29.79F

FORT PECK REPORTS


CITY           SKY/WX    TMP DP  RH WIND       PRES   REMARKS
FORT PECK        N/A     37  30  75 S21         N/A
THE PINES        N/A     39  26  59 S9          N/A

SOUTHEAST MONTANA


CITY           SKY/WX    TMP DP  RH WIND       PRES   REMARKS
BILLINGS       CLOUDY    36  15  42 SW20      30.03F
MILES CITY     CLOUDY    33  20  58 SE6       29.99S
BAKER          CLOUDY    34  19  54 W16       29.98F
LIVINGSTON     CLOUDY    35  17  47 SW47G62   30.06F

CENTRAL MONTANA


CITY           SKY/WX    TMP DP  RH WIND       PRES   REMARKS
HAVRE          CLOUDY    43  27  53 SW14G22   29.84F
LEWISTOWN      CLOUDY    40  24  53 W22       29.97F
GREAT FALLS    CLOUDY    44  21  40 SW26G37   29.93F
CUT BANK       MOCLDY    44  22  41 W31G45    29.86R
HELENA         CLOUDY    28  22  78 VRB6      30.09F
BUTTE          CLOUDY    34  19  54 E12       30.16F
BOZEMAN        CLOUDY    19  13  77 NE8       30.17F

WESTERN MONTANA


CITY           SKY/WX    TMP DP  RH WIND       PRES   REMARKS
MISSOULA       MOCLDY    26  24  92 VRB3      30.17R
KALISPELL      NOT AVBL

NORTH DAKOTA


CITY           SKY/WX    TMP DP  RH WIND       PRES   REMARKS
WILLISTON      CLOUDY    30  24  78 SW12      29.84F
DICKINSON      CLOUDY    31  22  69 W17       29.90F
MINOT          CLOUDY    33  21  61 S10       29.82F
BISMARCK       CLEAR     32  22  66 SW5       29.95F

SOUTHERN SASKATCHEWAN


CITY           SKY/WX    TMP DP  RH WIND       PRES   REMARKS
REGINA         CLOUDY    23  21  93 S9        29.68F
ESTEVAN        NOT AVBL
SWIFT CURRENT  MOCLDY    45  27  49 W25G32    29.66F





USA.gov is the U.S. government's official web portal to all federal, state and local government web resources and services.